Powrót do katalogu

YAOGAN-31 D

AktywnyMilitariaLEO
NORAD 47532·PAYLOAD·🇨🇳 China

Wystrzelony Jan 29, 2021 z Jiuquan Satellite Launch Center

Loading…

Następne Przeloty (najbliższe 24 godziny)

TLE

ŚwieżeSource: Space-Track

Epoka: Sep 14, 2026, 14:32 UTC

1 47532U 21007A   26257.60559483  .00000070  00000-0  24426-3 0  9991
2 47532  63.4016 273.3098 0183656   0.8175 359.3117 13.45453416276263

Śledź YAOGAN-31 D w czasie rzeczywistym z AllMySat

Download on the App Store